Weather History for Waukesha, WI

Change the Weather History Date:

Wednesday, April 23, 2014

  Actual Average Record
Temperature  
Mean Temperature 38 °F -  
Max Temperature 48 °F 58 °F 84 °F (1960)
Min Temperature 28 °F 38 °F 28 °F (2002)
Degree Days  
Heating Degree Days 27    
Moisture  
Dew Point 22 °F    
Average Humidity 64    
Maximum Humidity 93    
Minimum Humidity 32    
Precipitation  
Precipitation 0.00 in - - ()
Sea Level Pressure  
Sea Level Pressure 30.13 in    
Wind  
Wind Speed 3 mph (ENE)    
Max Wind Speed 9 mph    
Max Gust Speed -    
Visibility 10 miles    
Events Rain , Snow    
Averages and records for this station are not official NWS values.
T = Trace of Precipitation, MM = Missing Value Source: NWS Daily Summary

Daily Weather History Graph

Daily Weather History Graph

Search for Another Location

Airport:

Trip Planner

Search our weather history database for the weather conditions in past years. The results will help you decide how hot, cold, wet, or windy it might be!

Date:

Astronomy

Apr. 23, 2014 Rise Set
Actual Time 5:58 AM CDT 7:44 PM CDT
Civil Twilight 5:28 AM CDT 8:15 PM CDT
Nautical Twilight 4:51 AM CDT 8:52 PM CDT
Astronomical Twilight 4:11 AM CDT 9:32 PM CDT
Moon 2:39 AM CDT (4/23) 1:44 PM CDT (4/23)
Length of Visible Light 14h 47m
Length of Day
13h 46m
Waning Crescent, 34% of the Moon is Illuminated
Apr 23
Waning Crescent
Apr 29
New
May 6
First Quarter
May 14
Full
May 21
Last Quarter

Hourly Weather History & Observations

Time (CDT) Temp. Windchill Dew Point Humidity Pressure Visibility Wind Dir Wind Speed Gust Speed Precip Events Conditions
12:15 AM 33.8 °F 28.6 °F 30.2 °F 87% 30.11 in 10.0 mi ENE 5.8 mph - N/A   Clear
12:55 AM 32.0 °F - 28.4 °F 87% 30.13 in 10.0 mi Calm Calm - N/A   Clear
1:15 AM 32.0 °F 27.5 °F 28.4 °F 87% 30.13 in 10.0 mi ENE 4.6 mph - N/A   Clear
1:35 AM 32.0 °F - 28.4 °F 87% 30.13 in 10.0 mi Calm Calm - N/A   Clear
1:55 AM 32.0 °F 28.7 °F 28.4 °F 87% 30.13 in 10.0 mi NE 3.5 mph - N/A   Clear
2:15 AM 32.0 °F - 28.4 °F 87% 30.13 in 10.0 mi Calm Calm - N/A   Clear
2:35 AM 32.0 °F - 28.4 °F 87% 30.14 in 10.0 mi Calm Calm - N/A   Clear
2:55 AM 32.0 °F - 28.4 °F 87% 30.14 in 10.0 mi Calm Calm - N/A   Clear
3:15 AM 32.0 °F - 28.4 °F 87% 30.14 in 10.0 mi Calm Calm - N/A   Clear
3:35 AM 32.0 °F - 28.4 °F 87% 30.14 in 10.0 mi Calm Calm - N/A   Clear
3:55 AM 32.0 °F - 28.4 °F 87% 30.15 in 10.0 mi Calm Calm - N/A   Clear
4:15 AM 30.2 °F - 28.4 °F 93% 30.15 in 10.0 mi Calm Calm - N/A   Clear
4:35 AM 30.2 °F - 26.6 °F 86% 30.15 in 10.0 mi Calm Calm - N/A   Clear
4:55 AM 30.2 °F - 28.4 °F 93% 30.15 in 10.0 mi Calm Calm - N/A   Clear
5:15 AM 28.4 °F - 26.6 °F 93% 30.15 in 10.0 mi Calm Calm - N/A   Clear
5:35 AM 30.2 °F - 28.4 °F 93% 30.15 in 10.0 mi Calm Calm - N/A   Clear
5:45 AM 28.4 °F - 26.6 °F 93% 30.15 in 10.0 mi Calm Calm - N/A   Clear
6:45 AM 32.0 °F - 26.6 °F 80% 30.17 in 10.0 mi Calm Calm - N/A   Clear
7:45 AM 35.6 °F - 28.4 °F 75% 30.18 in 10.0 mi Calm Calm - N/A   Clear
8:45 AM 39.2 °F 33.0 °F 26.6 °F 61% 30.18 in 10.0 mi ENE 9.2 mph - N/A   Clear
9:45 AM 41.0 °F 35.8 °F 26.6 °F 57% 30.18 in 10.0 mi ENE 8.1 mph - N/A   Clear
2:45 PM 48.2 °F - 19.4 °F 32% 30.16 in 10.0 mi East 9.2 mph - N/A   Mostly Cloudy
3:45 PM 46.4 °F 41.9 °F 17.6 °F 32% 30.14 in 10.0 mi East 9.2 mph - N/A   Mostly Cloudy
4:45 PM 44.6 °F 39.7 °F 19.4 °F 37% 30.14 in 10.0 mi East 9.2 mph - N/A   Mostly Cloudy
5:45 PM 44.6 °F 41.4 °F 17.6 °F 34% 30.13 in 10.0 mi ENE 5.8 mph - N/A   Overcast
6:45 PM 42.8 °F 39.3 °F 17.6 °F 36% 30.13 in 10.0 mi East 5.8 mph - N/A   Overcast
7:45 PM 41.0 °F 37.1 °F 17.6 °F 39% 30.13 in 10.0 mi East 5.8 mph - N/A   Overcast
8:45 PM 39.2 °F 33.0 °F 15.8 °F 39% 30.10 in 10.0 mi East 9.2 mph - N/A   Overcast
9:15 PM 37.4 °F 31.4 °F 12.2 °F 36% 30.09 in 10.0 mi East 8.1 mph - N/A   Overcast
9:35 PM 37.4 °F 32.1 °F 12.2 °F 36% 30.09 in 10.0 mi East 6.9 mph - N/A   Mostly Cloudy
9:55 PM 37.4 °F 31.4 °F 12.2 °F 36% 30.08 in 10.0 mi East 8.1 mph - N/A   Overcast
10:15 PM 37.4 °F 31.4 °F 12.2 °F 36% 30.08 in 10.0 mi ENE 8.1 mph - N/A   Overcast
10:35 PM 37.4 °F 32.8 °F 12.2 °F 36% 30.07 in 10.0 mi East 5.8 mph - N/A   Overcast
10:55 PM 37.4 °F 32.1 °F 12.2 °F 36% 30.07 in 10.0 mi ENE 6.9 mph - N/A   Overcast
11:15 PM 37.4 °F 34.9 °F 10.4 °F 33% 30.09 in 10.0 mi East 3.5 mph - N/A   Overcast
11:35 PM 35.6 °F 28.6 °F 12.2 °F 38% 30.08 in 10.0 mi ENE 9.2 mph - N/A Snow Light Snow
11:55 PM 35.6 °F 30.7 °F 15.8 °F 44% 30.08 in 10.0 mi ENE 5.8 mph - N/A Rain Light Rain